TimeEST,TemperatureF,Dew PointF,Humidity,Sea Level PressureIn,VisibilityMPH,Wind Direction,Wind SpeedMPH,Gust SpeedMPH,PrecipitationIn,Events,Conditions,WindDirDegrees,DateUTC
12:15 AM,46.4,26.6,46,29.78,10.0,East,8.1,-,N/A,,Overcast,100,2013-02-26 05:15:00
12:35 AM,46.4,26.6,46,29.76,10.0,East,9.2,-,N/A,,Overcast,80,2013-02-26 05:35:00
12:55 AM,46.4,26.6,46,29.75,10.0,East,6.9,-,N/A,,Overcast,90,2013-02-26 05:55:00
1:15 AM,46.4,26.6,46,29.72,10.0,East,8.1,-,N/A,,Overcast,90,2013-02-26 06:15:00
1:35 AM,46.4,28.4,50,29.72,10.0,East,9.2,-,N/A,,Overcast,90,2013-02-26 06:35:00
1:55 AM,48.2,28.4,46,29.70,10.0,East,9.2,-,N/A,,Overcast,80,2013-02-26 06:55:00
2:15 AM,48.2,30.2,50,29.69,10.0,ENE,6.9,-,N/A,,Overcast,70,2013-02-26 07:15:00
2:35 AM,46.4,30.2,53,29.69,10.0,East,10.4,-,N/A,,Overcast,90,2013-02-26 07:35:00
2:55 AM,46.4,30.2,53,29.66,10.0,East,8.1,-,N/A,,Overcast,100,2013-02-26 07:55:00
3:15 AM,46.4,30.2,53,29.65,10.0,ESE,8.1,-,N/A,,Overcast,110,2013-02-26 08:15:00
3:35 AM,48.2,32.0,54,29.60,10.0,East,9.2,-,N/A,,Overcast,90,2013-02-26 08:35:00
3:55 AM,50.0,33.8,54,29.60,10.0,ESE,6.9,-,N/A,,Mostly Cloudy,120,2013-02-26 08:55:00
4:15 AM,50.0,33.8,54,29.60,10.0,SE,11.5,17.3,N/A,,Mostly Cloudy,130,2013-02-26 09:15:00
4:35 AM,50.0,33.8,54,29.60,10.0,SE,9.2,17.3,N/A,Rain,Light Rain,130,2013-02-26 09:35:00
4:55 AM,48.2,39.2,71,29.57,10.0,SE,13.8,19.6,N/A,Rain,Light Rain,130,2013-02-26 09:55:00
5:15 AM,48.2,41.0,76,29.53,10.0,ESE,16.1,25.3,N/A,Rain,Light Rain,120,2013-02-26 10:15:00
5:35 AM,48.2,42.8,82,29.55,10.0,SE,13.8,23.0,N/A,Rain,Light Rain,140,2013-02-26 10:35:00
5:55 AM,48.2,42.8,82,29.53,10.0,SE,12.7,20.7,0.01,Rain,Light Rain,130,2013-02-26 10:55:00
6:15 AM,48.2,42.8,82,29.54,10.0,ESE,4.6,16.1,0.01,Rain,Light Rain,120,2013-02-26 11:15:00
6:35 AM,46.4,42.8,87,29.52,10.0,ESE,8.1,-,0.01,Rain,Light Rain,120,2013-02-26 11:35:00
6:55 AM,46.4,42.8,87,29.51,10.0,ESE,9.2,16.1,0.01,,Overcast,120,2013-02-26 11:55:00
7:15 AM,46.4,42.8,87,29.51,10.0,SE,9.2,17.3,N/A,,Mostly Cloudy,130,2013-02-26 12:15:00
7:35 AM,46.4,42.8,87,29.49,10.0,SE,11.5,-,N/A,,Overcast,130,2013-02-26 12:35:00
7:55 AM,48.2,42.8,82,29.49,10.0,SE,9.2,20.7,N/A,,Mostly Cloudy,130,2013-02-26 12:55:00
8:15 AM,50.0,42.8,76,29.50,10.0,South,3.5,-,N/A,,Overcast,170,2013-02-26 13:15:00
8:35 AM,50.0,42.8,76,29.50,10.0,South,4.6,-,N/A,,Overcast,180,2013-02-26 13:35:00
8:55 AM,51.8,42.8,71,29.52,10.0,South,6.9,-,N/A,,Overcast,180,2013-02-26 13:55:00
9:15 AM,51.8,42.8,71,29.50,10.0,SE,8.1,-,N/A,,Overcast,140,2013-02-26 14:15:00
9:35 AM,51.8,42.8,71,29.50,10.0,SSE,10.4,16.1,N/A,,Overcast,150,2013-02-26 14:35:00
10:15 AM,51.8,42.8,71,29.48,10.0,SSE,13.8,18.4,N/A,,Overcast,160,2013-02-26 15:15:00
10:35 AM,51.8,42.8,71,29.48,10.0,SE,13.8,19.6,N/A,,Overcast,140,2013-02-26 15:35:00
10:55 AM,51.8,42.8,71,29.48,10.0,SSE,9.2,18.4,N/A,,Overcast,150,2013-02-26 15:55:00
11:15 AM,53.6,44.6,72,29.47,10.0,SE,9.2,-,N/A,,Overcast,140,2013-02-26 16:15:00
11:35 AM,53.6,42.8,67,29.46,10.0,SSE,11.5,19.6,N/A,,Overcast,150,2013-02-26 16:35:00
11:55 AM,53.6,42.8,67,29.47,10.0,SSE,10.4,16.1,N/A,,Overcast,160,2013-02-26 16:55:00
12:15 PM,53.6,44.6,72,29.47,10.0,SSE,11.5,17.3,N/A,Rain,Rain,160,2013-02-26 17:15:00
12:35 PM,51.8,44.6,76,29.46,10.0,SSE,8.1,16.1,N/A,,Overcast,150,2013-02-26 17:35:00
12:55 PM,51.8,44.6,76,29.45,10.0,SSE,9.2,-,N/A,,Overcast,160,2013-02-26 17:55:00
1:15 PM,51.8,44.6,76,29.45,10.0,SSE,5.8,-,N/A,Rain,Light Rain,160,2013-02-26 18:15:00
1:35 PM,51.8,44.6,76,29.44,10.0,SSW,4.6,-,N/A,,Overcast,200,2013-02-26 18:35:00
1:55 PM,50.0,44.6,82,29.44,4.0,SSW,11.5,16.1,0.04,Rain,Rain,200,2013-02-26 18:55:00
2:15 PM,50.0,46.4,87,29.44,5.0,SSW,8.1,-,0.03,Rain,Rain,200,2013-02-26 19:15:00
2:35 PM,50.0,48.2,94,29.43,5.0,SSW,6.9,-,0.06,Rain,Light Rain,200,2013-02-26 19:35:00
2:55 PM,51.8,48.2,88,29.43,10.0,SSW,8.1,-,0.06,,Overcast,200,2013-02-26 19:55:00
3:15 PM,51.8,46.4,82,29.44,10.0,SW,6.9,16.1,N/A,,Overcast,220,2013-02-26 20:15:00
3:35 PM,51.8,46.4,82,29.45,10.0,SW,11.5,18.4,0.01,,Light Drizzle,230,2013-02-26 20:35:00
3:55 PM,50.0,42.8,76,29.45,10.0,SW,13.8,32.2,0.01,Rain,Light Rain,230,2013-02-26 20:55:00
4:15 PM,51.8,42.8,71,29.46,10.0,SW,13.8,21.9,N/A,,Overcast,230,2013-02-26 21:15:00
4:35 PM,50.0,41.0,71,29.48,10.0,SW,25.3,36.8,N/A,,Overcast,230,2013-02-26 21:35:00
4:55 PM,50.0,37.4,62,29.49,10.0,SW,20.7,32.2,N/A,,Mostly Cloudy,230,2013-02-26 21:55:00
5:15 PM,48.2,37.4,66,29.52,10.0,West,19.6,32.2,N/A,Thunderstorm,Mostly Cloudy,260,2013-02-26 22:15:00
5:35 PM,46.4,35.6,66,29.53,10.0,WSW,23.0,28.8,N/A,,Overcast,250,2013-02-26 22:35:00
5:55 PM,46.4,33.8,62,29.54,10.0,WSW,13.8,26.5,N/A,,Overcast,240,2013-02-26 22:55:00
6:15 PM,46.4,33.8,62,29.55,10.0,SW,16.1,19.6,N/A,,Overcast,230,2013-02-26 23:15:00
6:35 PM,44.6,32.0,61,29.56,10.0,WSW,15.0,20.7,N/A,,Overcast,250,2013-02-26 23:35:00
6:55 PM,44.6,32.0,61,29.58,10.0,WSW,16.1,20.7,N/A,,Overcast,240,2013-02-26 23:55:00
7:15 PM,44.6,32.0,61,29.58,10.0,SW,15.0,20.7,N/A,,Overcast,230,2013-02-27 00:15:00
7:35 PM,44.6,32.0,61,29.59,10.0,SW,8.1,-,N/A,,Overcast,230,2013-02-27 00:35:00
7:55 PM,44.6,32.0,61,29.60,10.0,SW,10.4,16.1,N/A,,Overcast,230,2013-02-27 00:55:00
8:15 PM,44.6,32.0,61,29.60,10.0,SW,5.8,-,N/A,,Overcast,230,2013-02-27 01:15:00
8:35 PM,44.6,32.0,61,29.61,10.0,SW,10.4,17.3,N/A,,Overcast,230,2013-02-27 01:35:00
8:55 PM,44.6,32.0,61,29.62,10.0,WSW,18.4,32.2,N/A,,Light Drizzle,240,2013-02-27 01:55:00
9:15 PM,42.8,33.8,70,29.63,10.0,WSW,13.8,19.6,N/A,,Light Drizzle,240,2013-02-27 02:15:00
9:35 PM,42.8,33.8,70,29.63,10.0,WSW,15.0,23.0,N/A,,Light Drizzle,250,2013-02-27 02:35:00
9:55 PM,42.8,33.8,70,29.63,10.0,WSW,16.1,21.9,N/A,,Light Drizzle,240,2013-02-27 02:55:00
10:15 PM,42.8,33.8,70,29.65,10.0,WSW,17.3,25.3,N/A,,Drizzle,240,2013-02-27 03:15:00
10:35 PM,41.0,33.8,76,29.65,10.0,SW,10.4,-,N/A,,Light Drizzle,230,2013-02-27 03:35:00
10:55 PM,39.2,35.6,87,29.65,7.0,West,13.8,20.7,N/A,Rain,Light Rain,270,2013-02-27 03:55:00
11:15 PM,39.2,33.8,81,29.66,10.0,WSW,13.8,20.7,N/A,,Light Drizzle,250,2013-02-27 04:15:00
11:35 PM,39.2,33.8,81,29.66,10.0,WSW,13.8,21.9,N/A,,Light Drizzle,240,2013-02-27 04:35:00
11:55 PM,39.2,33.8,81,29.67,10.0,WSW,10.4,19.6,N/A,,Overcast,240,2013-02-27 04:55:00